Stations météo

Publicité
Pau, France (7610): Température de l'air & dewpoint: 12.08.2017 03:00:00 - 18.08.2017 03:00:00 (CEST)Pau, France (7610): Température de l'air 5cm: 12.08.2017 03:00:00 - 18.08.2017 03:00:00 (CEST)Pau, France (7610): Température de l'air -20cm & Température de l'air -100cm: 12.08.2017 03:00:00 - 18.08.2017 03:00:00 (CEST)Pau, France (7610): Vitesse du vent & gusts: 12.08.2017 03:00:00 - 18.08.2017 03:00:00 (CEST)Pau, France (7610): Direction du vent: 12.08.2017 03:00:00 - 18.08.2017 03:00:00 (CEST)Pau, France (7610): reduced air pressure: 12.08.2017 03:00:00 - 18.08.2017 03:00:00 (CEST)Pau, France (7610): visibility: 12.08.2017 03:00:00 - 18.08.2017 03:00:00 (CEST)Pau, France (7610): Ensoleillement: 12.08.2017 03:00:00 - 18.08.2017 03:00:00 (CEST)Pau, France (7610): Quantités de précipitations: 12.08.2017 03:00:00 - 18.08.2017 03:00:00 (CEST)
Date & Time tt [°C] td [°C] tt 5cm [°C] tt -20cm [°C] tt -100cm [°C] ff [km/h] ff [knt] fx [km/h] fx [knt] dd ppp [hPa] vv [km] sd [min] rr [mm]
18.08.2017 03:00:00 18,3 17,1 15,9 22,9 19,6 9 5 16 9 W 1018,5 19 0 0,0
18.08.2017 02:00:00 17,8 16,8 15,3 22,9 19,6 8 5 13 7 W 1018,5 12 0 0,0
18.08.2017 01:00:00 18,3 17,1 16,1 22,9 19,6 0 0 4 2 N 1018,2 26 0 0,0
18.08.2017 00:00:00 18,9 17,4 16,3 22,9 19,6 2 1 7 4 ENE 1018,0 24 0 0,0
17.08.2017 23:00:00 20,6 18,0 18,2 22,9 19,6 2 1 5 3 SE 1018,0 32 0 0,0
17.08.2017 22:00:00 22,1 18,5 18,6 22,7 19,6 2 1 6 3 NNW 1018,2 35 0 0,0
17.08.2017 21:00:00 24,6 18,1 22,0 22,6 19,6 4 2 8 5 NE 1018,2 19 46 0,0
17.08.2017 20:00:00 27,0 17,8 27,4 22,4 19,6 6 3 14 8 NE 1018,4 43 60 0,0
17.08.2017 19:00:00 27,9 17,4 30,5 22,2 19,6 11 6 18 10 N 1018,7 20 60 0,0
17.08.2017 18:00:00 28,2 17,4 32,9 21,9 19,6 9 5 16 8 NNW 1018,9 20 60 0,0
17.08.2017 17:00:00 28,2 17,4 34,9 21,7 19,6 8 5 20 11 NNW 1019,1 45 60 0,0
17.08.2017 16:00:00 27,8 17,0 34,1 21,5 19,6 5 3 20 11 NNW 1019,5 47 60 0,0
17.08.2017 15:00:00 27,3 18,0 33,9 21,4 19,6 6 3 12 6 NE 1019,8 19 60 0,0
17.08.2017 14:00:00 25,6 18,0 28,2 21,3 19,6 8 5 16 9 N 1020,5 27 56 0,0
17.08.2017 13:00:00 24,5 18,0 26,3 21,3 19,6 5 3 10 5 WNW 1021,1 19 46 0,0
17.08.2017 12:00:00 23,2 17,6 26,7 21,3 19,6 4 2 11 6 NW 1021,6 18 35 0,0
17.08.2017 11:00:00 21,7 18,1 25,3 21,3 19,6 3 1 8 4 N 1021,6 20 26 0,0
17.08.2017 10:00:00 19,9 18,4 22,1 21,4 19,6 3 2 7 4 NNE 1021,4 14 28 0,0
17.08.2017 09:00:00 18,3 17,8 17,8 21,4 19,6 3 1 7 4 SSW 1021,3 1,1 22 0,0
17.08.2017 08:00:00 17,3 17,0 16,7 21,5 19,6 5 3 6 3 S 1021,3 6 0 0,0
17.08.2017 07:00:00 16,6 16,3 15,3 21,6 19,6 0 0 4 2 N 1021,4 1,7 0 0,0
17.08.2017 06:00:00 15,9 15,4 13,1 21,6 19,6 0 0 4 2 N 1021,0 0,2 0 0,0
17.08.2017 05:00:00 16,1 15,3 13,0 21,7 19,6 0 0 3 2 N 1021,0 0,2 0 0,0
17.08.2017 04:00:00 17,4 16,6 15,0 21,7 19,6 3 2 4 2 NNE 1021,2 0,4 0 0,0
17.08.2017 03:00:00 18,1 17,5 15,7 21,8 19,6 2 1 5 3 E 1021,5 8 0 0,0
17.08.2017 02:00:00 18,5 17,3 16,5 21,8 19,5 5 3 6 3 S 1022,0 8 0 0,0
17.08.2017 01:00:00 18,8 17,8 17,2 21,8 19,6 0 0 5 3 N 1022,4 16 0 0,0
17.08.2017 00:00:00 19,0 17,7 18,2 21,8 19,6 0 0 7 4 N 1022,4 16 0 0,0
16.08.2017 23:00:00 19,5 17,8 18,2 21,9 19,6 4 2 10 6 WSW 1022,7 21 0 0,0
16.08.2017 22:00:00 20,7 18,5 19,8 21,9 19,6 0 0 6 3 N 1022,5 26 0 0,0
16.08.2017 21:00:00 21,3 17,9 20,9 21,8 19,6 6 3 9 5 NW 1022,1 26 0 0,0
16.08.2017 20:00:00 21,9 17,9 22,2 21,8 19,6 7 4 11 6 NW 1022,0 34 0 0,0
16.08.2017 19:00:00 22,2 18,2 22,7 21,8 19,6 6 3 10 5 N 1021,8 35 0 0,0
16.08.2017 18:00:00 22,5 17,8 24,6 21,7 19,5 7 4 13 7 N 1021,7 35 0 0,0
16.08.2017 17:00:00 22,3 17,7 23,3 21,7 19,5 5 3 12 6 NW 1021,8 39 0 0,0
16.08.2017 16:00:00 21,8 17,6 23,4 21,7 19,5 9 5 12 7 NW 1021,6 39 0 0,0
16.08.2017 15:00:00 22,2 17,8 24,3 21,6 19,5 4 2 10 5 WSW 1021,8 43 0 0,0
16.08.2017 14:00:00 22,2 18,0 23,5 21,7 19,5 3 2 10 6 W 1021,8 40 1 0,0
16.08.2017 13:00:00 20,7 17,7 20,1 21,7 19,6 3 1 10 5 W 1022,1 39 0 0,0
16.08.2017 12:00:00 19,0 17,7 19,2 21,7 19,5 7 4 11 6 NW 1022,4 20 0 0,0
16.08.2017 11:00:00 18,3 17,8 18,3 21,8 19,5 4 2 8 4 NNW 1022,1 4,6 0 0,2
16.08.2017 10:00:00 17,8 17,3 17,9 21,9 19,5 4 2 6 3 NW 1022,0 2,4 0 0,0
16.08.2017 09:00:00 17,5 17,0 17,6 21,9 19,5 4 2 8 5 WNW 1022,0 2,1 0 0,2
16.08.2017 08:00:00 17,5 17,0 17,5 22,0 19,5 5 3 11 6 WNW 1021,6 2,5 0 0,0
16.08.2017 07:00:00 17,6 17,1 17,5 22,1 19,5 7 4 11 6 WNW 1021,0 2,3 0 0,2
16.08.2017 06:00:00 17,8 17,0 17,6 22,1 19,5 6 3 12 6 NNW 1020,5 2,5 0 0,0
16.08.2017 05:00:00 18,2 16,9 18,1 22,2 19,5 8 4 11 6 NW 1020,6 16 0 0,0
16.08.2017 04:00:00 18,4 16,9 18,3 22,2 19,5 5 3 10 5 WNW 1020,7 22 0 0,0
16.08.2017 03:00:00 18,6 17,1 18,6 22,2 19,4 7 4 12 7 WNW 1021,3 29 0 0,0
16.08.2017 02:00:00 18,9 17,2 18,8 22,3 19,5 8 5 13 7 NW 1021,7 30 0 0,0
16.08.2017 01:00:00 19,3 17,3 19,1 22,3 19,5 11 6 16 9 NNW 1021,9 25 0 0,0
16.08.2017 00:00:00 19,6 18,1 19,6 22,4 19,5 7 4 10 6 WNW 1021,9 20 0 0,0
15.08.2017 23:00:00 19,8 18,5 19,7 22,4 19,4 6 3 10 5 W 1021,6 26 0 0,0
15.08.2017 22:00:00 19,9 18,6 19,8 22,4 19,4 7 4 16 9 W 1021,2 26 0 0,0
15.08.2017 21:00:00 20,3 18,8 20,2 22,4 19,5 9 5 18 10 W 1020,5 20 0 0,0
15.08.2017 20:00:00 21,6 18,6 21,5 22,4 19,4 15 8 22 12 NW 1019,9 27 0 0,0
15.08.2017 19:00:00 23,0 18,1 23,3 22,3 19,4 9 5 14 8 NNW 1019,5 24 0 0,0
15.08.2017 18:00:00 23,5 18,4 24,5 22,3 19,4 8 4 19 11 N 1019,3 28 0 0,0
15.08.2017 17:00:00 23,4 18,3 25,9 22,3 19,4 10 5 16 9 NW 1019,4 28 0 0,0
15.08.2017 16:00:00 23,1 18,2 24,8 22,3 19,4 11 6 20 11 N 1019,3 23 4 0,0
15.08.2017 15:00:00 22,2 18,0 23,2 22,3 19,4 12 7 21 11 N 1019,1 20 0 0,0
15.08.2017 14:00:00 21,9 18,5 20,4 22,3 19,4 9 5 19 10 N 1018,7 20 0 0,0
15.08.2017 13:00:00 20,8 18,6 20,2 22,3 19,4 7 4 22 12 WNW 1018,9 17 0 1,4
15.08.2017 12:00:00 21,4 18,6 21,1 22,4 19,4 6 3 18 10 WNW 1019,2 18 9 0,0
15.08.2017 11:00:00 21,0 18,4 20,7 22,5 19,4 4 2 20 11 NE 1018,4 17 2 0,2
15.08.2017 10:00:00 20,6 18,9 20,9 22,5 19,4 11 6 17 9 NW 1018,9 13 0 0,0
15.08.2017 09:00:00 19,9 18,9 19,9 22,6 19,4 10 5 13 7 WNW 1018,2 11 0 0,0
15.08.2017 08:00:00 19,4 18,6 18,8 22,7 19,4 2 1 6 3 S 1017,5 11 0 0,0
15.08.2017 07:00:00 18,9 18,2 17,3 22,7 19,4 3 1 10 6 W 1017,3 9 0 0,0
15.08.2017 06:00:00 18,9 18,1 17,0 22,8 19,4 5 3 10 6 W 1017,1 8 0 0,0
15.08.2017 05:00:00 19,4 18,2 18,5 22,8 19,4 8 5 10 6 W 1017,1 11 0 0,0
15.08.2017 04:00:00 20,4 18,3 20,2 22,9 19,4 0 0 16 9 N 1017,7 14 0 0,0
15.08.2017 03:00:00 20,4 18,5 19,1 22,9 19,4 6 3 14 8 NW 1017,8 16 0 0,0
15.08.2017 02:00:00 20,8 18,2 19,1 22,9 19,3 0 0 11 6 N 1017,2 22 0 0,0
15.08.2017 01:00:00 21,7 18,7 21,0 22,9 19,4 12 6 22 12 W 1017,1 20 0 0,0
15.08.2017 00:00:00 22,9 18,9 22,2 22,9 19,3 15 8 45 24 W 1016,9 22 0 0,0
14.08.2017 23:00:00 24,0 18,9 23,4 22,8 19,4 24 13 49 27 NW 1014,7 25 0 0,0
14.08.2017 22:00:00 28,2 19,2 26,3 22,7 19,4 9 5 18 10 SE 1011,4 29 0 0,0
14.08.2017 21:00:00 29,1 19,1 26,5 22,6 19,4 10 5 15 8 ESE 1011,1 34 11 0,0
14.08.2017 20:00:00 31,3 19,0 30,6 22,4 19,4 10 5 17 9 E 1010,6 29 52 0,0
14.08.2017 19:00:00 32,9 18,3 34,3 22,1 19,3 11 6 19 11 E 1010,9 49 60 0,0
14.08.2017 18:00:00 33,8 17,5 37,4 21,8 19,4 9 5 19 10 E 1011,1 20 60 0,0
14.08.2017 17:00:00 33,7 17,8 38,6 21,6 19,3 9 5 16 9 E 1011,3 39 60 0,0
14.08.2017 16:00:00 33,7 17,8 39,1 21,3 19,3 9 5 16 9 E 1011,6 39 60 0,0
14.08.2017 15:00:00 32,6 18,0 38,3 21,2 19,4 7 4 17 9 E 1012,2 43 60 0,0
14.08.2017 14:00:00 31,9 18,8 37,9 21,1 19,4 9 5 13 7 E 1012,5 37 60 0,0
14.08.2017 13:00:00 29,9 19,3 36,0 21,0 19,4 4 2 10 5 E 1013,2 32 60 0,0
14.08.2017 12:00:00 27,2 18,8 32,5 21,1 19,4 3 2 11 6 E 1013,7 39 60 0,0
14.08.2017 11:00:00 24,7 17,4 29,9 21,1 19,4 5 3 10 5 ESE 1014,2 33 60 0,0
14.08.2017 10:00:00 22,1 17,0 25,5 21,2 19,4 3 2 5 3 E 1014,4 25 60 0,0
14.08.2017 09:00:00 18,6 15,8 17,7 21,3 19,4 4 2 11 6 S 1014,9 25 60 0,0
14.08.2017 08:00:00 15,9 14,8 13,2 21,4 19,3 9 5 10 5 SE 1015,1 15 28 0,0
14.08.2017 07:00:00 15,0 14,0 12,6 21,5 19,3 3 2 8 5 ESE 1015,3 13 0 0,0
14.08.2017 06:00:00 14,6 14,0 12,6 21,6 19,4 4 2 5 3 SE 1015,5 16 0 0,0
14.08.2017 05:00:00 14,6 13,6 12,3 21,7 19,4 0 0 4 2 N 1016,1 17 0 0,2
14.08.2017 04:00:00 15,4 14,1 13,2 21,7 19,3 0 0 3 2 N 1016,1 30 0 0,0
14.08.2017 03:00:00 16,2 14,9 13,6 21,8 19,4 2 1 5 3 SSE 1016,2 32 0 0,0
14.08.2017 02:00:00 16,2 14,7 14,4 21,9 19,4 4 2 8 4 ENE 1016,6 20 0 0,0
14.08.2017 01:00:00 17,6 15,6 15,4 21,8 19,3 7 4 9 5 SE 1016,9 29 0 0,0
14.08.2017 00:00:00 18,3 16,1 15,7 21,9 19,4 5 3 6 3 E 1017,3 30 0 0,0
13.08.2017 23:00:00 19,3 16,3 15,9 21,8 19,4 0 0 4 2 N 1017,5 35 0 0,0
13.08.2017 22:00:00 21,6 16,5 19,3 21,7 19,4 0 0 9 5 N 1017,0 36 0 0,0
13.08.2017 21:00:00 23,6 17,1 21,6 21,5 19,4 4 2 14 8 NE 1016,8 47 53 0,0
13.08.2017 20:00:00 26,6 15,0 26,6 21,3 19,3 7 4 16 9 ESE 1016,7 51 60 0,0
13.08.2017 19:00:00 27,2 14,9 29,7 21,1 19,4 9 5 16 9 E 1017,0 40 60 0,0
13.08.2017 18:00:00 27,6 15,3 32,0 20,9 19,4 9 5 18 10 E 1017,3 44 60 0,0
13.08.2017 17:00:00 26,8 14,9 31,5 20,6 19,4 9 5 18 10 E 1017,8 32 60 0,0
13.08.2017 16:00:00 26,8 15,2 31,9 20,5 19,4 8 4 21 11 E 1018,2 38 60 0,0
13.08.2017 15:00:00 26,2 15,3 32,1 20,3 19,5 9 5 21 11 NNE 1018,7 40 60 0,0
13.08.2017 14:00:00 25,3 15,0 31,1 20,2 19,4 9 5 23 13 E 1019,2 44 60 0,0
13.08.2017 13:00:00 24,6 15,0 30,4 20,1 19,4 12 7 22 12 ENE 1019,8 20 60 0,0
13.08.2017 12:00:00 22,6 15,7 28,2 20,2 19,5 5 3 13 7 E 1020,7 38 60 0,0
13.08.2017 11:00:00 20,5 15,5 23,1 20,2 19,4 3 2 7 4 NE 1021,2 18 60 0,0
13.08.2017 10:00:00 18,6 15,3 18,6 20,4 19,5 2 1 6 3 SE 1021,6 19 60 0,0
13.08.2017 09:00:00 15,6 14,0 16,2 20,4 19,5 4 2 6 3 SSE 1021,8 16 56 0,0
13.08.2017 08:00:00 13,9 13,3 11,4 20,5 19,5 3 1 8 4 ESE 1021,8 15 28 0,0
13.08.2017 07:00:00 12,7 12,1 10,7 20,6 19,5 4 2 6 3 ESE 1021,9 13 0 0,0
13.08.2017 06:00:00 12,8 12,2 10,9 20,7 19,5 4 2 6 3 SE 1021,8 9 0 0,0
13.08.2017 05:00:00 13,3 12,5 11,0 20,8 19,5 3 2 5 3 SSE 1021,9 1,2 0 0,0
13.08.2017 04:00:00 14,1 13,6 11,0 20,9 19,5 4 2 5 3 S 1022,1 9 0 0,0
13.08.2017 03:00:00 13,5 12,6 11,1 20,9 19,5 3 1 6 3 WSW 1022,3 11 0 0,0
13.08.2017 02:00:00 14,2 13,1 11,7 20,9 19,5 0 0 9 5 N 1022,4 22 0 0,0
13.08.2017 01:00:00 14,8 13,7 12,8 20,9 19,5 5 3 16 9 ESE 1022,7 23 0 0,0
13.08.2017 00:00:00 15,9 14,1 13,6 20,9 19,5 6 3 8 5 SSE 1022,7 29 0 0,0
12.08.2017 23:00:00 17,1 13,8 14,3 20,8 19,5 0 0 4 2 N 1022,8 42 0 0,0
12.08.2017 22:00:00 18,7 14,6 15,4 20,7 19,5 3 1 9 5 NNE 1022,6 43 0 0,0
12.08.2017 21:00:00 21,3 15,2 20,5 20,6 19,6 6 4 11 6 N 1022,2 52 38 0,0
12.08.2017 20:00:00 22,5 15,1 22,9 20,3 19,5 5 3 10 6 N 1021,9 54 28 0,0
12.08.2017 19:00:00 23,9 13,1 26,7 20,1 19,5 5 3 14 7 NNW 1021,8 50 60 0,0
12.08.2017 18:00:00 23,9 12,8 29,1 19,8 19,6 4 2 18 10 WNW 1022,2 42 60 0,0
12.08.2017 17:00:00 23,8 11,8 29,9 19,6 19,6 4 2 18 10 NW 1022,4 46 60 0,0
12.08.2017 16:00:00 23,3 12,0 30,6 19,4 19,6 8 4 17 9 N 1023,0 18 60 0,0
12.08.2017 15:00:00 22,9 13,7 29,9 19,2 19,6 8 4 21 11 NNE 1023,3 20 60 0,0
12.08.2017 14:00:00 22,0 13,4 28,9 19,1 19,6 4 2 14 7 ESE 1023,6 60 60 0,0
12.08.2017 13:00:00 21,0 12,4 28,6 19,1 19,6 4 2 11 6 ENE 1024,1 20 60 0,0
12.08.2017 12:00:00 20,0 12,7 24,3 19,1 19,6 4 2 9 5 SSE 1024,6 43 52 0,0
12.08.2017 11:00:00 19,2 12,2 24,9 19,1 19,6 6 3 10 5 WNW 1024,9 44 56 0,0
12.08.2017 10:00:00 17,6 13,1 18,5 19,2 19,6 3 2 9 5 ENE 1024,7 44 53 0,0
12.08.2017 09:00:00 15,6 14,5 14,5 19,3 19,6 4 2 6 4 SE 1024,7 15 60 0,0
12.08.2017 08:00:00 12,5 12,2 8,7 19,4 19,6 5 3 8 4 SE 1024,5 8 28 0,2
12.08.2017 07:00:00 11,0 10,5 8,8 19,5 19,6 3 1 8 4 ENE 1024,6 5 0 0,0
12.08.2017 06:00:00 11,0 10,5 8,3 19,6 19,7 3 1 6 3 ESE 1024,2 12 0 0,0
12.08.2017 05:00:00 11,3 10,7 8,4 19,7 19,7 2 1 5 3 E 1024,5 1,1 0 0,0
12.08.2017 04:00:00 12,0 11,4 9,0 19,7 19,7 4 2 8 4 SE 1024,8 12 0 0,0
12.08.2017 03:00:00 12,4 11,8 9,3 19,8 19,7 4 2 5 3 SE 1025,0 3,5 0 0,0

tt = Température de l'air
td = dewpoint
tt 5cm = Température de l'air 5cm
tt -20cm = Température de l'air -20cm
tt -100cm = Température de l'air -100cm
ff = Vitesse du vent
fx = gusts
dd = Direction du vent
ppp = reduced air pressure
vv = visibility
sd = Ensoleillement
rr = Quantités de précipitations

stations d'obs. à proximité